Location: *
(60.1759°S, 155.0663°W)
Time: 09:50:23
(UTC+00:00)

Lacrosse 4 Rocket - Pass Details

Date: 17 September 2019
Orbit: 544 x 615 km, 68.0° (Epoch: 23 October)

Event Time Altitude Azimuth Distance (km) Brightness Sun altitude
Rises 15:11:09 0° 228° (SW) 2,899 4.7 -9.8°
Reaches altitude 10° 15:13:25 10° 230° (SW) 1,998 3.8 -9.5°
Maximum altitude 15:17:54 68° 312° (NW) 677 1.6 -8.9°
Drops below altitude 10° 15:22:24 10° 34° (NE) 2,001 4.5 -8.4°
Sets 15:24:40 0° 36° (NE) 2,902 5.4 -8.1°
